Date String (YYYY-MM-DD hh:mm:ss) UTC,Instrument flags,absolute air pressure of the measurement (hPa),sample flow rate (lpm),inlet stack bypass flow (lpm),air temperature of the measurement (°C),ambient temperature measured by the external sensor (°C),aerosol sample conditioner tube jacket temperature (°C),OPC LED temperature (°C),internal box temperature (°C),relative humidity of the measurement (%),span deviation,mass concentration of particles derived from Lorenz-Mie calculation of OPC scattering (μg/m³),mass concentration of particles derived from Lorenz-Mie calculation of OPC scattering (μg/m³),mass concentration of particles derived from Lorenz-Mie calculation of OPC scattering (μg/m³)
DateTimeUTC,F1_M11,P_M11,Q1_M11,Q2_M11,T1_M11,T2_M11,T3_M11,T4_M11,T5_M11,U1_M11,ZSPAN_M11,X0_M11,X2_M11,X1_M11
2023-07-05 16:00:00,SystemResetWarning,0835.9,5.01,000.00,029.8,028.0,000.0,038.5,031.3,32.1,-003.9,0008.98,0005.92,0005.64
2023-07-05 16:01:00,SystemResetWarning,0835.9,5.00,000.00,029.8,028.2,000.0,038.5,031.4,32.0,-003.7,0008.97,0005.89,0005.62
2023-07-05 16:02:00,SystemResetWarning,0835.9,4.99,000.00,029.9,028.3,000.0,038.5,031.4,32.1,-003.1,0008.95,0005.87,0005.60
2023-07-05 16:03:00,SystemResetWarning,0835.9,4.99,000.00,029.9,028.4,000.0,038.5,031.4,32.1,-002.5,0008.99,0005.89,0005.61
2023-07-05 16:04:00,SystemResetWarning,0835.9,5.00,000.00,029.9,028.4,000.0,038.5,031.4,32.2,-002.3,0008.98,0005.91,0005.61
2023-07-05 16:05:00,SystemResetWarning,0835.9,5.00,000.00,029.9,028.5,000.0,038.5,031.4,32.1,-002.3,0008.95,0005.90,0005.61
2023-07-05 16:06:00,SystemResetWarning,0835.9,5.01,000.00,029.9,028.5,000.0,038.5,031.5,31.9,-002.4,0008.87,0005.89,0005.60
2023-07-05 16:07:00,SystemResetWarning,0835.9,5.01,000.00,029.9,028.6,000.0,038.5,031.5,31.8,-002.1,0008.58,0005.85,0005.58
2023-07-05 16:08:00,SystemResetWarning,0835.9,5.00,000.00,030.0,028.6,000.0,038.5,031.5,31.7,-001.8,0008.34,0005.81,0005.55
2023-07-05 16:09:00,SystemResetWarning,0835.9,5.00,000.00,030.0,028.6,000.0,038.5,031.5,31.8,-002.0,0008.27,0005.76,0005.53
2023-07-05 16:10:00,SystemResetWarning,0835.9,5.00,000.00,030.0,028.7,000.0,038.5,031.5,32.0,-002.0,0008.13,0005.73,0005.50
2023-07-05 16:11:00,SystemResetWarning,0835.9,5.00,000.00,030.0,028.7,000.0,038.5,031.6,31.9,-002.0,0008.05,0005.68,0005.47
2023-07-05 16:12:00,SystemResetWarning,0835.9,5.00,000.00,030.0,028.7,000.0,038.6,031.6,32.0,-002.0,0007.97,0005.66,0005.45
2023-07-05 16:13:00,SystemResetWarning,0835.9,4.99,000.00,030.0,028.8,000.0,038.6,031.6,32.1,-002.1,0007.96,0005.67,0005.44
2023-07-05 16:14:00,SystemResetWarning,0835.9,5.00,000.00,030.1,028.8,000.0,038.6,031.6,32.1,-002.3,0008.53,0005.64,0005.42
2023-07-05 16:15:00,SystemResetWarning,0835.9,5.00,000.00,030.1,028.8,000.0,038.6,031.6,31.8,-002.9,0008.63,0005.65,0005.41
2023-07-05 16:16:00,SystemResetWarning,0835.9,5.01,000.00,030.1,028.8,000.0,038.6,031.6,31.7,-002.8,0008.67,0005.65,0005.40
2023-07-05 16:17:00,SystemResetWarning,0835.9,5.00,000.00,030.1,028.8,000.0,038.6,031.7,31.8,-002.7,0008.77,0005.68,0005.41
2023-07-05 16:18:00,SystemResetWarning,0835.9,5.00,000.00,030.1,028.9,000.0,038.6,031.7,31.7,-003.0,0008.82,0005.71,0005.43
2023-07-05 16:19:00,SystemResetWarning,0835.9,5.00,000.00,030.1,028.9,000.0,038.6,031.7,31.5,-003.4,0009.31,0005.73,0005.45
2023-07-05 16:20:00,SystemResetWarning,0835.9,5.00,000.00,030.1,028.9,000.0,038.6,031.7,31.5,-003.7,0009.38,0005.77,0005.48
2023-07-05 16:21:00,SystemResetWarning,0835.9,5.00,000.00,030.2,028.9,000.0,038.7,031.7,31.8,-003.6,0009.35,0005.79,0005.52
2023-07-05 16:22:00,SystemResetWarning,0835.9,4.99,000.00,030.2,028.9,000.0,038.7,031.7,31.8,-003.6,0009.35,0005.82,0005.55
2023-07-05 16:23:00,SystemResetWarning,0835.8,5.00,000.00,030.2,029.0,000.0,038.7,031.7,31.5,-003.5,0009.54,0005.85,0005.59
2023-07-05 16:24:00,SystemResetWarning,0835.8,4.99,000.00,030.2,029.0,000.0,038.7,031.7,31.4,-003.5,0009.75,0005.88,0005.63
2023-07-05 16:25:00,SystemResetWarning,0835.8,5.00,000.00,030.2,029.0,000.0,038.7,031.7,31.3,-003.7,0009.52,0005.90,0005.64
2023-07-05 16:26:00,SystemResetWarning,0835.8,5.00,000.00,030.2,029.0,000.0,038.7,031.8,31.4,-003.8,0009.12,0005.90,0005.65
2023-07-05 16:27:00,SystemResetWarning,0835.8,5.01,000.00,030.2,029.0,000.0,038.8,031.8,31.5,-003.5,0009.04,0005.86,0005.64
2023-07-05 16:28:00,SystemResetWarning,0835.8,5.00,000.00,030.2,029.0,000.0,038.8,031.8,31.6,-003.4,0008.95,0005.83,0005.63
2023-07-05 16:29:00,SystemResetWarning,0835.8,5.01,000.00,030.3,029.0,000.0,038.8,031.8,31.6,-003.6,0008.87,0005.80,0005.61
2023-07-05 16:30:00,SystemResetWarning,0835.8,5.00,000.00,030.3,029.0,000.0,038.8,031.8,31.7,-003.6,0008.64,0005.80,0005.60
2023-07-05 16:31:00,SystemResetWarning,0835.8,4.99,000.00,030.3,029.0,000.0,038.8,031.8,31.9,-003.5,0008.47,0005.84,0005.62
2023-07-05 16:32:00,SystemResetWarning,0835.8,5.00,000.00,030.3,029.0,000.0,038.8,031.9,31.8,-003.4,0008.49,0005.88,0005.65
2023-07-05 16:33:00,SystemResetWarning,0835.8,5.01,000.00,030.3,029.1,000.0,038.8,031.9,31.7,-003.7,0008.54,0005.90,0005.67
2023-07-05 16:34:00,SystemResetWarning,0835.8,5.00,000.00,030.3,029.1,000.0,038.8,031.9,31.6,-003.9,0008.57,0005.96,0005.71
2023-07-05 16:35:00,SystemResetWarning,0835.8,5.00,000.00,030.3,029.1,000.0,038.9,031.9,31.4,-004.0,0008.32,0005.99,0005.73
2023-07-05 16:36:00,SystemResetWarning,0835.8,5.00,000.00,030.4,029.1,000.0,038.9,031.9,31.3,-004.0,0008.31,0006.01,0005.74
2023-07-05 16:37:00,SystemResetWarning,0835.8,4.99,000.00,030.4,028.2,000.0,038.8,031.9,31.2,-003.7,0008.35,0006.05,0005.76
2023-07-05 16:38:00,SystemResetWarning,0835.8,5.00,000.00,030.3,026.3,000.0,038.7,031.6,31.3,-003.6,0008.39,0006.09,0005.79
2023-07-05 16:39:00,SystemResetWarning,0835.8,5.01,000.00,030.2,025.5,000.0,038.6,031.3,31.4,-003.5,0008.45,0006.12,0005.80
2023-07-05 16:40:00,SystemResetWarning,0835.7,5.01,000.00,030.0,025.7,000.0,038.6,031.0,32.0,-003.5,0008.49,0006.16,0005.84
2023-07-05 16:41:00,SystemResetWarning,0835.8,5.01,000.00,029.9,026.1,000.0,038.6,031.0,32.2,-003.6,0008.55,0006.19,0005.85
2023-07-05 16:42:00,SystemResetWarning,0835.8,4.98,000.00,029.9,026.5,000.0,038.6,031.1,32.5,-003.8,0008.51,0006.17,0005.85
2023-07-05 16:43:00,SystemResetWarning,0835.7,4.99,000.00,029.8,026.9,000.0,038.6,031.2,32.6,-003.6,0008.45,0006.12,0005.83
2023-07-05 16:44:00,SystemResetWarning,0835.7,5.01,000.00,029.8,027.2,000.0,038.6,031.2,32.4,-003.4,0008.39,0006.09,0005.80
2023-07-05 16:45:00,SystemResetWarning,0835.8,5.01,000.00,029.8,027.5,000.0,038.6,031.2,32.3,-003.5,0008.32,0006.04,0005.77
2023-07-05 16:46:00,SystemResetWarning,0835.7,5.00,000.00,029.8,027.7,000.0,038.6,031.3,32.3,-003.3,0008.30,0006.03,0005.76
2023-07-05 16:47:00,SystemResetWarning,0835.7,4.99,000.00,029.8,027.9,000.0,038.5,031.3,32.4,-003.3,0008.28,0006.02,0005.76
2023-07-05 16:48:00,SystemResetWarning,0835.7,5.00,000.00,029.8,028.0,000.0,038.5,031.3,32.3,-003.5,0008.18,0005.97,0005.74
2023-07-05 16:49:00,SystemResetWarning,0835.7,5.00,000.00,029.8,028.2,000.0,038.5,031.4,32.0,-003.8,0008.12,0005.93,0005.72
2023-07-05 16:50:00,SystemResetWarning,0835.7,5.00,000.00,029.9,028.3,000.0,038.5,031.4,32.1,-004.2,0008.13,0005.92,0005.71
2023-07-05 16:51:00,SystemResetWarning,0835.6,5.00,000.00,029.9,028.4,000.0,038.5,031.4,32.0,-004.3,0008.08,0005.88,0005.67
2023-07-05 16:52:00,SystemResetWarning,0835.7,5.00,000.00,029.9,028.4,000.0,038.5,031.4,32.1,-004.2,0008.05,0005.84,0005.64
2023-07-05 16:53:00,SystemResetWarning,0835.7,5.00,000.00,029.9,028.5,000.0,038.5,031.5,32.4,-003.9,0007.99,0005.82,0005.62
2023-07-05 16:54:00,SystemResetWarning,0835.6,5.00,000.00,029.9,028.5,000.0,038.5,031.5,32.4,-004.1,0008.00,0005.81,0005.59
2023-07-05 16:55:00,SystemResetWarning,0835.7,5.00,000.00,029.9,028.6,000.0,038.5,031.5,32.4,-004.3,0007.96,0005.78,0005.56
2023-07-05 16:56:00,SystemResetWarning,0835.8,5.00,000.00,030.0,028.6,000.0,038.5,031.5,32.3,-003.9,0008.02,0005.79,0005.55
2023-07-05 16:57:00,SystemResetWarning,0835.8,4.99,000.00,030.0,028.7,000.0,038.5,031.6,32.3,-003.8,0008.04,0005.79,0005.53
2023-07-05 16:58:00,SystemResetWarning,0835.8,5.00,000.00,030.0,028.7,000.0,038.5,031.6,32.2,-003.7,0008.01,0005.77,0005.51
2023-07-05 16:59:00,SystemResetWarning,0835.7,5.00,000.00,030.0,028.7,000.0,038.6,031.6,32.1,-003.2,0008.03,0005.78,0005.52
